DW5330 Weather Reports


Display with metric or nautical units.
time (UTC)temp
F
wind
direction
speed
MPH
gust
MPH
rain 1hr
in
rain 24hr
in
rain mn
in
humidity
%
barometer
mb
20260503174005 66 324 3.0 5.0 0.00 0.13 0.00 84 1016.2
20260503172004 66 324 1.0 3.0 0.00 0.13 0.00 82 1016.5
20260503171504 67 300 1.0 2.0 0.00 0.13 0.00 82 1016.5
20260503171004 67 71 1.0 2.0 0.00 0.13 0.00 82 1016.5
20260503170505 67 156 1.0 3.0 0.00 0.13 0.00 81 1016.5
20260503151007 68 321 2.0 5.0 0.00 0.13 0.00 78 1017.5
20260503131007 69 279 4.0 9.0 0.00 0.08 0.07 78 1018.3
20260503110506 70 291 7.0 12.0 0.04 0.06 0.05 83 1018.6
20260503072006 71 273 4.0 7.0 0.00 0.02 0.01 76 1018.3
20260503055005 73 280 2.0 6.0 0.00 0.02 0.01 73 1018.7
20260503054506 73 329 5.0 9.0 0.00 0.02 0.01 73 1018.8
20260503053506 73 284 3.0 7.0 0.00 0.02 0.01 74 1018.8
20260503051505 73 299 2.0 5.0 0.00 0.02 0.01 73 1019.0
20260503051006 72 348 2.0 7.0 0.00 0.02 0.01 74 1019.0
20260503050506 72 312 2.0 8.0 0.00 0.02 0.01 74 1019.0
20260503050006 72 296 3.0 6.0 0.00 0.02 0.01 74 1019.0
20260503044505 72 285 2.0 6.0 0.00 0.02 0.01 73 1019.1
20260503043506 73 345 5.0 9.0 0.00 0.02 0.01 72 1019.1
20260503043005 73 317 2.0 7.0 0.00 0.02 0.01 71 1019.1
20260503042505 73 334 3.0 9.0 0.00 0.02 0.01 72 1019.1
20260503042006 73 313 2.0 8.0 0.00 0.02 0.01 71 1019.2
20260503041505 73 309 2.0 9.0 0.00 0.02 0.01 70 1019.3
20260503041005 73 20 3.0 7.0 0.00 0.02 0.01 70 1019.2
20260503040006 73 347 1.0 6.0 0.00 0.02 0.01 68 1019.3
20260503035505 73 3 2.0 7.0 0.00 0.02 0.01 68 1019.3
20260503034506 72 301 3.0 7.0 0.00 0.02 0.01 71 1019.4
20260503032505 73 176 2.0 10.0 0.00 0.02 0.01 69 1019.6
20260503031506 74 343 1.0 7.0 0.00 0.02 0.01 66 1019.6
20260503030506 74 336 3.0 7.0 0.00 0.02 0.01 67 1019.9
20260503030006 74 278 3.0 8.0 0.00 0.02 0.01 67 1020.0
20260503025005 74 127 2.0 6.0 0.00 0.02 0.01 66 1020.2
20260503024506 74 47 1.0 8.0 0.00 0.02 0.01 66 1020.2
20260503024005 73 345 3.0 8.0 0.00 0.02 0.01 66 1020.3
20260503023005 73 139 2.0 8.0 0.00 0.02 0.01 66 1020.3
20260503022006 73 266 3.0 8.0 0.00 0.02 0.01 67 1020.5
20260503021505 73 16 1.0 7.0 0.00 0.02 0.01 66 1020.7
20260503020506 73 55 2.0 8.0 0.00 0.02 0.01 66 1020.9
20260503015505 73 288 3.0 6.0 0.00 0.02 0.01 65 1021.0
20260503014505 73 294 3.0 6.0 0.00 0.02 0.01 66 1021.2
20260503014005 73 329 1.0 6.0 0.00 0.02 0.01 65 1021.3
20260503013506 73 307 3.0 7.0 0.00 0.02 0.01 66 1021.2
20260503012505 73 221 2.0 7.0 0.00 0.02 0.01 65 1021.4
20260503012006 73 139 3.0 7.0 0.00 0.02 0.01 66 1021.6
20260503011505 73 313 3.0 9.0 0.00 0.02 0.01 65 1021.5
20260503011005 73 275 2.0 8.0 0.00 0.02 0.01 66 1021.5
20260503010505 73 349 2.0 10.0 0.00 0.02 0.01 64 1021.6
20260503004005 71 303 7.0 13.0 0.00 0.02 0.01 65 1022.0
20260503003505 71 294 7.0 14.0 0.00 0.02 0.01 66 1022.0
20260503002006 72 294 5.0 9.0 0.00 0.02 0.01 63 1022.2
20260503001006 72 288 4.0 8.0 0.00 0.02 0.01 65 1022.3
20260503000005 71 293 3.0 9.0 0.00 0.02 0.01 66 1022.2
20260502235506 71 299 3.0 10.0 0.00 0.02 0.01 66 1022.3
20260502234005 71 298 7.0 12.0 0.00 0.02 0.01 66 1022.3
20260502231506 70 308 3.0 8.0 0.00 0.02 0.01 69 1022.7
20260502230005 70 283 6.0 8.0 0.00 0.02 0.01 72 1022.6
20260502223505 69 285 5.0 8.0 0.00 0.02 0.01 74 1022.6
20260502223005 69 296 4.0 7.0 0.00 0.02 0.01 75 1022.6
20260502221005 68 301 5.0 7.0 0.00 0.02 0.01 77 1022.6
20260502215505 67 297 3.0 7.0 0.00 0.02 0.01 78 1022.4
20260502214005 67 291 5.0 7.0 0.00 0.02 0.01 78 1022.3
20260502213505 67 290 3.0 7.0 0.00 0.02 0.01 78 1022.2
20260502210505 67 289 5.0 8.0 0.00 0.02 0.01 78 1022.1
20260502205005 66 312 4.0 7.0 0.00 0.02 0.01 79 1021.9
20260502204505 66 296 5.0 7.0 0.00 0.02 0.01 79 1022.0
20260502203505 66 281 3.0 5.0 0.00 0.02 0.01 80 1022.0
20260502203005 66 286 3.0 5.0 0.00 0.02 0.01 80 1022.1
20260502202505 66 281 5.0 6.0 0.00 0.02 0.01 79 1022.2
20260502202005 66 299 3.0 6.0 0.00 0.02 0.01 79 1022.1
20260502200505 66 285 3.0 5.0 0.00 0.02 0.01 80 1022.1
20260502195005 67 285 5.0 6.0 0.00 0.02 0.01 80 1022.0
20260502193005 67 299 3.0 6.0 0.00 0.02 0.01 80 1021.8
20260502185504 67 294 3.0 7.0 0.00 0.02 0.01 78 1021.6
20260502184504 67 288 3.0 7.0 0.00 0.02 0.01 78 1021.7
20260502184004 67 322 5.0 8.0 0.00 0.02 0.01 78 1021.8
20260502182505 68 295 5.0 7.0 0.00 0.02 0.01 78 1021.9
20260502181505 68 303 5.0 8.0 0.00 0.02 0.01 78 1021.8
20260502181005 68 306 3.0 8.0 0.00 0.02 0.01 78 1021.8